Location: Newark
(54.6833°N, 25.2833°E)
Time: 18:42:18
(UTC+00:00)

A-11 Canister half - Pass Details

Date: 28 January 2021
Orbit: 1525 x 1684 km, 47.3° (Epoch: 05 March)

Event Time Altitude Azimuth Distance (km) Brightness Sun altitude
Rises 15:07:55 0° 264° (W) 4,693 13.1 -3.2°
Reaches altitude 10° 15:11:00 10° 260° (W) 3,722 12.6 -3.6°
Maximum altitude 15:20:04 55° 187° (S) 1,837 9.7 -4.8°
Drops below altitude 10° 15:29:25 10° 113° (ESE) 3,833 10.7 -6.0°
Sets 15:32:39 0° 109° (ESE) 4,840 11.2 -6.4°
